[[[{"header":{"parameterUnit":"kt","parameterCategory":2,"dx":1,"dy":1,"la1":30.253999710083008,"la2":30.299108505249023,"lo1":-89.0895004272461,"lo2":-89.04439544677734,"nx":28,"ny":28,"refTime":"2022-10-02T21:00:00:Z","depth":"0","parameterNumber":2,"parameterNumberName":"U-component_of_CURRENTS"},"data":[-0.3574,-0.3436,-0.3442,-0.3234,-0.3224,-0.3096,-0.3057,-0.3004,-0.3031,-0.2954,-0.301,-0.3104,-0.3157,-0.334,-0.3142,-0.2985,-0.2982,-0.2787,-0.2854,-0.3261,-0.3325,-0.3387,-0.3391,-0.2782,-0.2782,-0.2456,-0.2454,-0.2453,-0.3751,-0.3734,-0.3705,-0.3671,-0.3601,-0.3727,-0.3746,-0.3667,-0.3578,-0.3662,-0.3626,-0.3616,-0.3431,-0.3439,-0.3275,-0.3117,-0.3106,-0.3064,-0.3196,-0.3153,-0.3458,-0.3442,-0.2834,-0.2834,-0.2834,-0.2834,-0.2834,-0.2834,-0.4093,-0.4022,-0.407,-0.403,-0.4062,-0.405,-0.3971,-0.4098,-0.4081,-0.4085,-0.4207,-0.4119,-0.4076,-0.385,-0.3759,-0.3572,-0.3717,-0.3589,-0.3699,-0.3735,-0.3611,-0.4002,-0.3399,-0.3402,-0.3404,-0.3406,-0.3408,0,-0.4369,-0.4413,-0.4433,-0.4423,-0.4429,-0.4455,-0.4516,-0.4494,-0.4725,-0.4719,-0.4698,-0.4666,-0.4512,-0.4364,-0.4197,-0.4156,-0.4378,-0.4293,-0.4344,-0.4313,-0.4358,-0.4236,-0.4804,-0.4291,-0.4299,-0.4305,-0.4309,-0.4312,-0.4732,-0.468,-0.481,-0.4806,-0.4888,-0.4861,-0.4887,-0.5089,-0.5119,-0.5204,-0.5168,-0.5101,-0.5085,-0.4869,-0.4844,-0.4749,-0.4847,-0.4484,-0.4663,-0.4728,-0.4787,-0.4839,-0.4777,-0.4395,-0.4384,-0.4376,-0.4369,0,-0.4921,-0.5114,-0.5088,-0.5265,-0.5298,-0.5207,-0.5369,-0.5341,-0.546,-0.5438,-0.5441,-0.5622,-0.5534,-0.5658,-0.5536,-0.5561,-0.529,-0.5281,-0.5208,-0.5115,-0.4865,-0.4972,-0.4474,-0.4346,-0.4888,-0.4879,-0.4872,0,-0.5363,-0.5318,-0.5579,-0.5547,-0.5477,-0.5696,-0.5618,-0.572,-0.5827,-0.5824,-0.6048,-0.5999,-0.617,-0.6093,-0.6149,-0.5906,-0.5938,-0.5825,-0.574,-0.5654,-0.563,-0.552,-0.5613,-0.598,-0.5982,-0.5985,-0.5987,0,-0.5556,-0.5799,-0.5784,-0.583,-0.6034,-0.6023,-0.6088,-0.6206,-0.6239,-0.6286,-0.6264,-0.6371,-0.6312,-0.6288,-0.6316,-0.6443,-0.6112,-0.6224,-0.5902,-0.5888,-0.5613,-0.5581,-0.5328,-0.599,-0.599,-0.5991,-0.5992,0,-0.5932,-0.6048,-0.6121,-0.6189,-0.6233,-0.6282,-0.6251,-0.6355,-0.6468,-0.652,-0.6596,-0.6677,-0.6705,-0.6771,-0.6667,-0.6783,-0.6676,-0.663,-0.6614,-0.6306,-0.6298,-0.583,-0.5667,-0.5678,-0.647,-0.6474,-0.6478,0,-0.5915,-0.6115,-0.6328,-0.6369,-0.6417,-0.6562,-0.663,-0.6729,-0.6796,-0.6788,-0.6903,-0.6896,-0.7078,-0.7037,-0.7019,-0.6957,-0.6848,-0.7027,-0.6622,-0.661,-0.6328,-0.6236,-0.607,-0.5759,-0.6533,-0.6527,-0.6523,0,-0.5884,-0.6243,-0.6237,-0.6225,-0.6487,-0.6568,-0.6715,-0.6809,-0.6769,-0.6956,-0.6886,-0.7084,-0.7076,-0.7098,-0.7153,-0.7079,-0.6939,-0.7065,-0.7053,-0.688,-0.6589,-0.6347,-0.6286,-0.6885,-0.6879,-0.6874,-0.6567,0,-0.5903,-0.6017,-0.6166,-0.6335,-0.6466,-0.6615,-0.675,-0.6835,-0.686,-0.6907,-0.6986,-0.7063,-0.706,-0.7144,-0.7192,-0.7144,-0.7123,-0.7088,-0.6956,-0.7007,-0.6883,-0.6849,-0.722,-0.7218,-0.7217,-0.7215,0,0,-0.5656,-0.5859,-0.6061,-0.6235,-0.6294,-0.6428,-0.653,-0.6656,-0.6822,-0.6823,-0.6816,-0.6949,-0.699,-0.7034,-0.7081,-0.7168,-0.7075,-0.7119,-0.7049,-0.7032,-0.7015,-0.6895,-0.6864,-0.7212,-0.7212,-0.7211,-0.7211,0,-0.5656,-0.5802,-0.5969,-0.6098,-0.6315,-0.6393,-0.6452,-0.6645,-0.6657,-0.6814,-0.6744,-0.6791,-0.6973,-0.6924,-0.6943,-0.7148,-0.6996,-0.7211,-0.7216,-0.7043,-0.7028,-0.7014,-0.6894,-0.6867,-0.7207,-0.7207,-0.7207,0,-0.549,-0.5648,-0.5726,-0.6001,-0.6131,-0.6271,-0.6259,-0.6478,-0.6518,-0.6501,-0.6578,-0.6629,-0.6668,-0.6789,-0.6843,-0.6795,-0.6887,-0.6976,-0.6987,-0.6926,-0.6738,-0.6726,-0.6715,-0.6826,-0.6825,-0.6824,0,0,-0.5461,-0.5627,-0.5812,-0.5999,-0.6102,-0.6223,-0.634,-0.635,-0.6464,-0.6489,-0.6498,-0.6527,-0.6595,-0.6627,-0.6704,-0.6895,-0.6763,-0.6928,-0.6946,-0.696,-0.691,-0.6727,-0.6718,-0.6818,-0.6818,-0.6818,0,0,-0.543,-0.5648,-0.5606,-0.5861,-0.6003,-0.6203,-0.6343,-0.6342,-0.6436,-0.6399,-0.6357,-0.6359,-0.6476,-0.6505,-0.6434,-0.6618,-0.6545,-0.6566,-0.6582,-0.6605,-0.6623,-0.6521,-0.6272,0,0,0,0,0,-0.5438,-0.564,-0.56,-0.5657,-0.5966,-0.6234,-0.6277,-0.6285,-0.6212,-0.6293,-0.6294,-0.6211,-0.6413,-0.6351,-0.6391,-0.643,-0.6748,-0.676,-0.6772,-0.684,-0.6864,-0.6884,0,0,0,0,0,0,-0.5461,-0.5528,-0.5598,-0.5804,-0.5877,-0.6226,-0.6068,-0.6078,-0.6196,-0.6171,-0.6223,-0.6214,-0.617,-0.6329,-0.6366,-0.6401,-0.6259,-0.6753,-0.6763,-0.6773,-0.6848,-0.6868,-0.6885,0,0,0,0,0,-0.548,-0.5534,-0.6,-0.5804,-0.5866,-0.5953,-0.6054,-0.606,-0.6135,-0.6168,-0.6159,-0.6125,-0.6179,-0.6201,-0.635,-0.6383,-0.6234,-0.6248,-0.6759,-0.6768,-0.6775,-0.6858,0,0,0,0,0,0,-0.5495,-0.555,-0.6015,-0.6039,-0.5673,-0.593,-0.5958,-0.6046,-0.6119,-0.6122,-0.6063,-0.6042,-0.6189,-0.6204,-0.6222,-0.6374,-0.6213,-0.6227,-0.6236,-0.6766,-0.6772,-0.6778,0,0,0,0,0,0,-0.5523,-0.5569,-0.6027,-0.586,-0.5864,-0.5908,-0.5934,-0.6121,-0.6114,-0.6005,-0.5995,-0.6052,-0.6107,-0.6208,-0.6221,-0.6521,-0.6197,-0.621,-0.622,-0.6226,-0.6771,-0.6776,0,0,0,0,0,0,-0.5544,-0.5584,-0.5853,-0.5857,-0.586,-0.6121,-0.6068,-0.634,-0.6098,-0.5997,-0.6064,-0.6048,-0.6111,-0.6126,-0.6222,-0.6517,-0.652,-0.6197,-0.6206,-0.6213,-0.6217,0,0,0,0,0,0,0,-0.5562,-0.5267,-0.5883,-0.5854,-0.5856,-0.6261,-0.6267,-0.6272,-0.6095,-0.6081,-0.6068,-0.6055,-0.612,-0.6135,-0.615,-0.6514,0,0,-0.6196,-0.6202,0,0,0,0,0,0,0,0,-0.5253,-0.5263,-0.5884,-0.5889,-0.5894,-0.6262,-0.6266,-0.6271,-0.6092,-0.6081,-0.607,-0.606,-0.6124,-0.6136,-0.6148,0,0,0,0,0,0,0,0,0,0,0,0,0,0,0,-0.5884,-0.5889,0,-0.6262,-0.6266,-0.627,-0.6091,-0.6082,-0.6073,-0.6064,-0.6127,-0.6137,-0.6147,0,0,0,0,0,0,0,0,0,0,0,0,0,0,0,0,0,0,0,0,0,0,0,0,0,0,0,0,0,0,0,0,0,0,0,0,0,0,0,0,0,0,0,0,0,0,0,0,0,0,0,0,0,0,0,0,0,0,0,0,0,0,0,0,0,0,0,0,0]}],[{"header":{"parameterUnit":"kt","parameterCategory":2,"dx":1,"dy":1,"la1":30.253999710083008,"la2":30.299108505249023,"lo1":-89.0895004272461,"lo2":-89.04439544677734,"nx":28,"ny":28,"refTime":"2022-10-02T21:00:00:Z","depth":"0","parameterNumber":3,"parameterNumberName":"V-component_of_CURRENTS"},"data":[-0.2061,-0.2146,-0.22,-0.2297,-0.2345,-0.2306,-0.2244,-0.2042,-0.1799,-0.127,-0.0818,-0.0481,0.0454,0.1829,0.2565,0.26,0.2837,0.2807,0.2946,0.252,0.2463,0.2408,0.2484,0.2958,0.2959,0.3508,0.3514,0.3518,-0.2051,-0.2116,-0.2202,-0.2273,-0.233,-0.2334,-0.2277,-0.2172,-0.1976,-0.1706,-0.138,-0.0559,0.0189,0.0838,0.1654,0.1951,0.1991,0.2081,0.2151,0.2208,0.1602,0.1654,0.1959,0.1959,0.1958,0.1958,0.1958,0.1958,-0.2031,-0.2085,-0.2141,-0.2206,-0.2257,-0.2282,-0.2248,-0.2179,-0.2053,-0.1766,-0.1547,-0.1126,-0.0371,0.0417,0.07,0.1265,0.1187,0.1415,0.1502,0.153,0.1697,0.1004,0.1209,0.1208,0.1208,0.1207,0.1206,0,-0.1996,-0.2019,-0.2056,-0.2134,-0.2165,-0.2189,-0.2163,-0.2135,-0.1979,-0.1841,-0.1568,-0.1324,-0.0747,-0.0198,0.0338,0.0582,0.0891,0.0793,0.1026,0.1265,0.1329,0.1461,0.07,0.0847,0.0844,0.0842,0.0841,0.084,-0.194,-0.1973,-0.2011,-0.2046,-0.2049,-0.2052,-0.2052,-0.1949,-0.1894,-0.1663,-0.1599,-0.1279,-0.0972,-0.0403,0.0028,0.0436,0.0642,0.0713,0.0748,0.0966,0.1093,0.1143,0.1233,0.0809,0.0813,0.0816,0.0819,0,-0.1906,-0.1918,-0.1957,-0.1946,-0.1941,-0.1947,-0.1894,-0.1865,-0.1742,-0.1624,-0.1576,-0.1274,-0.0945,-0.0604,-0.0227,0.0003,0.0464,0.044,0.0444,0.0488,0.0907,0.0995,0.13,0.1431,0.0654,0.0657,0.066,0,-0.1852,-0.1874,-0.1878,-0.1888,-0.1906,-0.1828,-0.1803,-0.1706,-0.1579,-0.1479,-0.1275,-0.1134,-0.0795,-0.0548,-0.0291,0.0077,0.0018,0.0348,0.039,0.0414,0.0425,0.0709,0.0811,0.0272,0.0272,0.0271,0.0271,0,-0.1764,-0.18,-0.1837,-0.1822,-0.176,-0.1739,-0.1683,-0.1514,-0.1434,-0.1259,-0.1199,-0.0933,-0.0774,-0.0569,-0.0199,-0.021,0.0092,0.0102,0.0342,0.0348,0.0476,0.0494,0.0734,0.027,0.027,0.027,0.027,0,-0.1686,-0.1719,-0.1775,-0.1712,-0.1702,-0.1687,-0.1544,-0.1476,-0.1268,-0.1169,-0.0984,-0.081,-0.0558,-0.0458,-0.0142,-0.0196,-0.0039,0.0104,0.0109,0.0297,0.0335,0.0403,0.0427,0.0663,0.0157,0.0156,0.0155,0,-0.1558,-0.1644,-0.1612,-0.162,-0.1618,-0.1476,-0.1421,-0.128,-0.1142,-0.1026,-0.0767,-0.0619,-0.0438,-0.0347,-0.0215,-0.0003,0.0076,0.0037,0.0197,0.0202,0.0281,0.0287,0.0337,0.0404,0.0143,0.0145,0.0145,0,-0.1444,-0.1448,-0.1452,-0.1433,-0.1358,-0.1327,-0.1263,-0.1131,-0.1071,-0.0909,-0.0822,-0.052,-0.0404,-0.0267,-0.0083,0.0024,0.0059,0.0084,0.0091,0.0072,0.0137,0.0254,0.0273,0.0076,0.0077,0.0078,0.0136,0,-0.128,-0.1302,-0.1341,-0.1323,-0.1283,-0.1281,-0.1146,-0.1077,-0.0977,-0.0859,-0.0682,-0.0455,-0.0255,-0.0174,-0.0029,0.0091,0.009,0.0137,0.0196,0.0173,0.0202,0.0208,0.0174,0.0177,0.018,0.0182,0,0,-0.1125,-0.1185,-0.1127,-0.1162,-0.113,-0.0996,-0.1014,-0.0922,-0.078,-0.0703,-0.0674,-0.0354,-0.0177,0.0026,0.0056,0.0128,0.0145,0.0161,0.0188,0.0188,0.0189,0.0214,0.0217,0.0186,0.0187,0.0188,0.0189,0,-0.1069,-0.1053,-0.112,-0.1074,-0.1023,-0.0945,-0.0951,-0.0851,-0.0779,-0.0674,-0.0524,-0.037,-0.0167,0.0004,0.0115,0.0146,0.0223,0.0175,0.0147,0.0206,0.0203,0.02,0.0223,0.0225,0.0195,0.0194,0.0194,0,-0.0941,-0.0936,-0.0954,-0.0929,-0.0876,-0.086,-0.0769,-0.0755,-0.0713,-0.0523,-0.043,-0.0291,-0.0084,0.0047,0.0116,0.0157,0.0295,0.0283,0.0274,0.0297,0.0364,0.0359,0.0356,0.0399,0.0399,0.0398,0,0,-0.0895,-0.0937,-0.0861,-0.0908,-0.0888,-0.0786,-0.0762,-0.0705,-0.0601,-0.0554,-0.0413,-0.0251,-0.0104,-0.0008,0.0125,0.0254,0.0313,0.0299,0.0289,0.0281,0.0298,0.0362,0.0359,0.0398,0.0397,0.0397,0,0,-0.0861,-0.0831,-0.0784,-0.0847,-0.0781,-0.0685,-0.0694,-0.063,-0.0516,-0.0504,-0.032,-0.0272,-0.0149,-0.0025,-0.0058,0.0154,0.0205,0.0216,0.0062,0.0052,0.0043,0.0026,0.0062,0,0,0,0,0,-0.0764,-0.0839,-0.0797,-0.0797,-0.0745,-0.0703,-0.0686,-0.061,-0.0578,-0.0574,-0.0428,-0.0338,-0.0003,-0.0028,0.0018,0.0041,0.0386,0.0388,0.039,0.0222,0.021,0.02,0,0,0,0,0,0,-0.0763,-0.0766,-0.0794,-0.0714,-0.0701,-0.07,-0.0627,-0.0604,-0.0576,-0.0566,-0.0369,-0.0331,-0.0202,-0.0041,-0.0002,0.0017,0.005,0.0387,0.0389,0.039,0.0218,0.0208,0.02,0,0,0,0,0,-0.0763,-0.0764,-0.072,-0.0709,-0.0698,-0.0608,-0.0626,-0.0606,-0.0574,-0.039,-0.0354,-0.0525,-0.0206,-0.0163,-0.0017,-0.0005,0.0024,0.0038,0.0388,0.0389,0.0391,0.0213,0,0,0,0,0,0,-0.0762,-0.0712,-0.0714,-0.0704,-0.071,-0.0604,-0.0592,-0.0609,-0.0393,-0.0364,-0.0535,-0.0529,-0.0208,-0.0174,-0.0141,-0.0021,0.0003,0.0017,0.0026,0.0389,0.039,0.0391,0,0,0,0,0,0,-0.071,-0.0705,-0.0708,-0.0714,-0.0704,-0.0601,-0.0591,-0.045,-0.0387,-0.0545,-0.0538,-0.0534,-0.0225,-0.0182,-0.0156,0.006,-0.0013,0.0,0.001,0.0016,0.039,0.0391,0,0,0,0,0,0,-0.0705,-0.07,-0.0715,-0.0708,-0.0699,-0.0577,-0.0466,-0.0392,-0.048,-0.0552,-0.0479,-0.0478,-0.0233,-0.0206,-0.0167,0.0037,0.0054,-0.0013,-0.0003,0.0003,0.0007,0,0,0,0,0,0,0,-0.0701,-0.0774,-0.0783,-0.0702,-0.0694,-0.0618,-0.0614,-0.0611,-0.048,-0.048,-0.0479,-0.0478,-0.009,-0.0075,-0.006,0.0019,0,0,-0.0014,-0.0007,0,0,0,0,0,0,0,0,-0.0772,-0.0773,-0.0783,-0.0782,-0.0781,-0.0618,-0.0615,-0.0611,-0.048,-0.048,-0.0479,-0.0478,-0.0086,-0.0074,-0.0062,0,0,0,0,0,0,0,0,0,0,0,0,0,0,0,-0.0783,-0.0782,0,-0.0617,-0.0615,-0.0612,-0.048,-0.048,-0.0479,-0.0479,-0.0083,-0.0073,-0.0063,0,0,0,0,0,0,0,0,0,0,0,0,0,0,0,0,0,0,0,0,0,0,0,0,0,0,0,0,0,0,0,0,0,0,0,0,0,0,0,0,0,0,0,0,0,0,0,0,0,0,0,0,0,0,0,0,0,0,0,0,0,0,0,0,0,0,0,0,0]}]],[[{"header":{"parameterUnit":"kt","parameterCategory":2,"dx":1,"dy":1,"la1":30.253999710083008,"la2":30.299108505249023,"lo1":-89.0895004272461,"lo2":-89.04439544677734,"nx":28,"ny":28,"refTime":"2022-10-02T21:00:00:Z","depth":"2","parameterNumber":2,"parameterNumberName":"U-component_of_CURRENTS"},"data":[-0.3324,-0.3195,-0.3197,-0.2991,-0.2981,-0.282,-0.2769,-0.265,-0.2613,-0.2361,-0.2281,-0.2494,-0.2587,-0.2131,-0.2021,-0.1796,-0.2087,-0.1703,-0.256,-0.2729,-0.28,-0.3007,-0.279,0,0,0,0,0,-0.3486,-0.3471,-0.3447,-0.3414,-0.3342,-0.3464,-0.3469,-0.336,-0.3253,-0.3276,-0.3216,-0.2846,-0.2682,-0.2688,-0.2375,-0.2325,-0.2368,-0.2243,-0.2321,-0.2402,-0.2476,-0.228,-0.1672,-0.1669,-0.1666,-0.1664,0,0,-0.3797,-0.3735,-0.3773,-0.3742,-0.3776,-0.3758,-0.3682,-0.3781,-0.377,-0.374,-0.3868,-0.3704,-0.3688,-0.3295,-0.3125,-0.3008,-0.3292,-0.3202,-0.3236,-0.328,-0.3118,-0.3087,-0.2735,-0.2739,-0.2743,-0.2746,-0.2749,0,-0.4025,-0.4075,-0.4075,-0.4077,-0.4092,-0.4106,-0.4166,-0.4164,-0.4349,-0.4364,-0.4339,-0.4294,-0.4166,-0.3889,-0.3756,-0.3664,-0.3891,-0.3682,-0.4338,-0.3646,-0.3634,-0.3771,-0.3829,-0.3405,-0.3414,-0.342,-0.3424,-0.3428,-0.4316,-0.4283,-0.4375,-0.4372,-0.4398,-0.4429,-0.4448,-0.4619,-0.4632,-0.473,-0.4694,-0.4685,-0.4569,-0.4456,-0.432,-0.4244,-0.4387,-0.3883,-0.3832,-0.4443,-0.4576,-0.4608,-0.4637,-0.3518,-0.3507,-0.3497,-0.349,0,-0.4471,-0.4559,-0.4523,-0.4636,-0.4667,-0.465,-0.4738,-0.4751,-0.4875,-0.4851,-0.4875,-0.4931,-0.4861,-0.4854,-0.4828,-0.473,-0.4647,-0.4536,-0.4261,-0.4308,-0.467,-0.469,-0.4365,-0.4356,-0.4348,-0.4342,-0.4337,0,-0.472,-0.4682,-0.4811,-0.4794,-0.4766,-0.4882,-0.4852,-0.4929,-0.5006,-0.4971,-0.5061,-0.4984,-0.5034,-0.4971,-0.4969,-0.4777,-0.4878,-0.4661,-0.4758,-0.4516,-0.4488,-0.5066,-0.5089,-0.4856,-0.4856,-0.4855,-0.4854,0,-0.4855,-0.4925,-0.4866,-0.4887,-0.4986,-0.4964,-0.5026,-0.5067,-0.5093,-0.5162,-0.5187,-0.5064,-0.5067,-0.5006,-0.498,-0.5061,-0.4896,-0.5081,-0.4848,-0.4847,-0.4536,-0.451,-0.4854,-0.4854,-0.4853,-0.4853,-0.4853,0,-0.5014,-0.505,-0.5018,-0.5046,-0.5061,-0.5103,-0.5108,-0.5187,-0.5224,-0.5284,-0.5164,-0.523,-0.5057,-0.5116,-0.4976,-0.5063,-0.5079,-0.5116,-0.5126,-0.4878,-0.5147,-0.4812,-0.4622,-0.5408,-0.5411,-0.5413,-0.5416,0,-0.5037,-0.509,-0.5147,-0.5162,-0.5165,-0.524,-0.5294,-0.5328,-0.5398,-0.5446,-0.5357,-0.5397,-0.5332,-0.5361,-0.5224,-0.5326,-0.5207,-0.526,-0.5411,-0.5412,-0.5134,-0.5007,-0.4682,-0.4689,-0.545,-0.5446,-0.5444,0,-0.5067,-0.5179,-0.5182,-0.5167,-0.5274,-0.5338,-0.5398,-0.5402,-0.542,-0.5513,-0.5465,-0.5443,-0.541,-0.5416,-0.545,-0.5361,-0.5287,-0.5511,-0.5512,-0.5454,-0.5307,-0.5095,-0.5054,-0.5408,-0.54,-0.5395,-0.5471,0,-0.5048,-0.5098,-0.5161,-0.5242,-0.5297,-0.5362,-0.5469,-0.5546,-0.563,-0.5646,-0.5642,-0.5696,-0.5673,-0.5748,-0.577,-0.5631,-0.5761,-0.5836,-0.5754,-0.5739,-0.5809,-0.5788,-0.6065,-0.6067,-0.6068,-0.6069,0,0,-0.496,-0.5049,-0.5174,-0.5239,-0.5255,-0.5381,-0.5396,-0.5502,-0.5638,-0.5604,-0.5706,-0.5783,-0.5839,-0.5742,-0.5745,-0.5906,-0.5961,-0.5826,-0.5828,-0.5801,-0.5776,-0.5832,-0.581,-0.6071,-0.6072,-0.6072,-0.6073,0,-0.4946,-0.5065,-0.5133,-0.5202,-0.5312,-0.536,-0.54,-0.5519,-0.554,-0.5683,-0.566,-0.5654,-0.5906,-0.5802,-0.5822,-0.5934,-0.5952,-0.6086,-0.5877,-0.5845,-0.5817,-0.5791,-0.5841,-0.5821,-0.6076,-0.6076,-0.6075,0,-0.4874,-0.4967,-0.5024,-0.5178,-0.5239,-0.5303,-0.5315,-0.5428,-0.5462,-0.5495,-0.5582,-0.564,-0.5713,-0.5796,-0.5852,-0.5838,-0.5916,-0.5979,-0.5979,-0.5798,-0.5756,-0.5729,-0.5706,-0.5979,-0.5978,-0.5977,0,0,-0.4845,-0.4948,-0.5057,-0.5178,-0.5223,-0.5298,-0.5359,-0.5373,-0.5452,-0.5474,-0.5526,-0.5601,-0.5663,-0.5703,-0.5788,-0.5919,-0.5872,-0.5956,-0.5961,-0.5964,-0.579,-0.5747,-0.5725,-0.5971,-0.5971,-0.5971,0,0,-0.4821,-0.496,-0.496,-0.5118,-0.519,-0.5289,-0.5351,-0.5374,-0.5442,-0.5438,-0.5454,-0.5467,-0.557,-0.5639,-0.5562,-0.5736,-0.5735,-0.5754,-0.563,-0.5638,-0.5643,-0.5385,-0.5488,0,0,0,0,0,-0.4836,-0.4954,-0.4954,-0.4992,-0.5178,-0.5304,-0.5325,-0.533,-0.5321,-0.535,-0.5392,-0.5368,-0.5579,-0.5511,-0.5544,-0.5553,-0.5901,-0.5913,-0.5925,-0.5802,-0.5809,-0.5815,0,0,0,0,0,0,-0.4852,-0.4898,-0.4951,-0.5063,-0.5106,-0.53,-0.5231,-0.5235,-0.5312,-0.53,-0.5365,-0.537,-0.5358,-0.5495,-0.5525,-0.5532,-0.5478,-0.5906,-0.5916,-0.5926,-0.5804,-0.581,-0.5815,0,0,0,0,0,-0.4865,-0.4901,-0.5195,-0.506,-0.5098,-0.5149,-0.5224,-0.5226,-0.5275,-0.5322,-0.5324,-0.5275,-0.5362,-0.5385,-0.5513,-0.5517,-0.5457,-0.5468,-0.5913,-0.5921,-0.5928,-0.5807,0,0,0,0,0,0,-0.4874,-0.489,-0.5202,-0.5215,-0.4999,-0.5134,-0.5152,-0.5219,-0.529,-0.5298,-0.5229,-0.5219,-0.5366,-0.5383,-0.5402,-0.5507,-0.5441,-0.5452,-0.5459,-0.5919,-0.5925,-0.5931,0,0,0,0,0,0,-0.4871,-0.49,-0.5208,-0.513,-0.5133,-0.512,-0.5137,-0.5273,-0.5291,-0.5191,-0.5187,-0.5224,-0.5341,-0.5383,-0.5397,-0.5609,-0.5428,-0.5439,-0.5446,-0.5451,-0.5924,-0.5929,0,0,0,0,0,0,-0.4884,-0.4909,-0.5126,-0.5129,-0.5131,-0.5262,-0.5239,-0.5424,-0.5239,-0.5187,-0.5223,-0.5216,-0.5343,-0.5356,-0.5395,-0.5601,-0.5607,-0.5429,-0.5436,-0.5441,-0.5444,0,0,0,0,0,0,0,-0.4894,-0.4725,-0.5141,-0.5127,-0.5129,-0.5332,-0.5334,-0.5336,-0.5238,-0.5231,-0.5225,-0.5219,-0.5367,-0.5379,-0.5391,-0.5594,0,0,-0.5427,-0.5433,0,0,0,0,0,0,0,0,-0.4715,-0.4722,-0.5142,-0.5145,-0.5148,-0.5332,-0.5334,-0.5336,-0.5237,-0.5232,-0.5226,-0.5221,-0.5371,-0.538,-0.539,0,0,0,0,0,0,0,0,0,0,0,0,0,0,0,-0.5142,-0.5145,0,-0.5333,-0.5334,-0.5336,-0.5236,-0.5232,-0.5227,-0.5223,-0.5373,-0.5381,-0.5389,0,0,0,0,0,0,0,0,0,0,0,0,0,0,0,0,0,0,0,0,0,0,0,0,0,0,0,0,0,0,0,0,0,0,0,0,0,0,0,0,0,0,0,0,0,0,0,0,0,0,0,0,0,0,0,0,0,0,0,0,0,0,0,0,0,0,0,0,0]}],[{"header":{"parameterUnit":"kt","parameterCategory":2,"dx":1,"dy":1,"la1":30.253999710083008,"la2":30.299108505249023,"lo1":-89.0895004272461,"lo2":-89.04439544677734,"nx":28,"ny":28,"refTime":"2022-10-02T21:00:00:Z","depth":"2","parameterNumber":3,"parameterNumberName":"V-component_of_CURRENTS"},"data":[-0.188,-0.1963,-0.2013,-0.2121,-0.2175,-0.2178,-0.2133,-0.1998,-0.1772,-0.1468,-0.118,-0.0763,-0.0241,0.0124,0.0505,0.0763,0.0739,0.077,0.0743,0.0553,0.0541,0.0771,0.0717,0,0,0,0,0,-0.1864,-0.1926,-0.2007,-0.2077,-0.2138,-0.2137,-0.209,-0.201,-0.1844,-0.1576,-0.1285,-0.0811,-0.0268,0.0158,0.0661,0.0977,0.0929,0.1007,0.0892,0.0882,0.0873,0.0848,0.097,0.0971,0.0972,0.0973,0,0,-0.1833,-0.1885,-0.1933,-0.1997,-0.2044,-0.2068,-0.2048,-0.1973,-0.1863,-0.1604,-0.1398,-0.1018,-0.0584,0.0155,0.0517,0.0818,0.0809,0.0893,0.0885,0.0877,0.0856,0.0788,0.0977,0.0978,0.0978,0.0979,0.0979,0,-0.1784,-0.1808,-0.1832,-0.1906,-0.1937,-0.1953,-0.1927,-0.1907,-0.1748,-0.1623,-0.1377,-0.1152,-0.0622,-0.0147,0.0355,0.0581,0.0669,0.0771,0.0728,0.0653,0.0574,0.0589,0.0572,0.0732,0.0731,0.073,0.073,0.0729,-0.1716,-0.1745,-0.1764,-0.1795,-0.1785,-0.1797,-0.1796,-0.1686,-0.1633,-0.1414,-0.1358,-0.1062,-0.0784,-0.0238,0.016,0.0563,0.0577,0.0737,0.0751,0.064,0.0661,0.0641,0.0623,0.0721,0.0722,0.0723,0.0723,0,-0.1677,-0.1658,-0.1681,-0.1648,-0.1642,-0.1663,-0.1601,-0.1577,-0.1457,-0.1353,-0.131,-0.1018,-0.071,-0.0389,-0.0013,0.0199,0.0491,0.0603,0.0473,0.0503,0.0614,0.0599,0.0805,0.0809,0.0812,0.0814,0.0816,0,-0.1584,-0.1598,-0.1567,-0.158,-0.1593,-0.1508,-0.1487,-0.14,-0.1277,-0.1196,-0.0992,-0.0872,-0.0547,-0.0318,-0.0084,0.0241,0.0234,0.0467,0.0511,0.0443,0.0439,0.0433,0.0427,0.0477,0.0476,0.0475,0.0475,0,-0.1504,-0.1491,-0.1505,-0.1489,-0.1415,-0.1397,-0.1352,-0.1211,-0.1152,-0.0987,-0.0934,-0.0674,-0.0563,-0.033,-0.0055,-0.0063,0.0246,0.0264,0.0449,0.0451,0.0503,0.0506,0.0474,0.0474,0.0473,0.0473,0.0473,0,-0.1398,-0.1407,-0.1429,-0.1358,-0.1348,-0.1339,-0.1234,-0.1181,-0.1008,-0.0929,-0.0761,-0.0629,-0.0421,-0.0365,-0.0057,-0.012,0.0024,0.0142,0.015,0.0282,0.0297,0.0333,0.0363,0.0212,0.0209,0.0207,0.0206,0,-0.1295,-0.1341,-0.1293,-0.1295,-0.1289,-0.1184,-0.1139,-0.104,-0.0938,-0.0843,-0.0653,-0.0545,-0.0433,-0.0371,-0.0233,-0.0069,0.0035,-0.0049,0.02,0.0207,0.0249,0.0278,0.0225,0.0327,0.0179,0.0182,0.0184,0,-0.1223,-0.1188,-0.1198,-0.1174,-0.1113,-0.1107,-0.1051,-0.0951,-0.0903,-0.0794,-0.0705,-0.0513,-0.0426,-0.032,-0.0195,-0.0081,-0.0011,-0.0025,-0.0016,0.0003,0.0175,0.0231,0.0254,0.0044,0.0048,0.005,0.0163,0,-0.1073,-0.1085,-0.1115,-0.1094,-0.107,-0.1073,-0.0982,-0.0942,-0.0875,-0.0787,-0.0653,-0.0507,-0.0342,-0.0296,-0.0206,-0.0075,-0.0065,-0.0016,0.0062,0.005,0.0095,0.0111,-0.0038,-0.0035,-0.0033,-0.0032,0,0,-0.0967,-0.1005,-0.0977,-0.0996,-0.0972,-0.0891,-0.0894,-0.084,-0.0745,-0.0682,-0.0671,-0.043,-0.031,-0.014,-0.0135,-0.0091,-0.0038,-0.0028,0.0041,0.0048,0.0055,0.0099,0.0111,-0.0028,-0.0027,-0.0026,-0.0026,0,-0.0919,-0.0923,-0.0968,-0.0941,-0.0907,-0.0854,-0.086,-0.0793,-0.0739,-0.0674,-0.0557,-0.0452,-0.0298,-0.0163,-0.0076,-0.0075,0.0037,-0.0047,-0.0051,0.0054,0.0058,0.0063,0.0105,0.0115,-0.002,-0.0021,-0.0021,0,-0.082,-0.0819,-0.0838,-0.0831,-0.0795,-0.0782,-0.0716,-0.0714,-0.0681,-0.0537,-0.0466,-0.0371,-0.0211,-0.0116,-0.0063,-0.0018,0.0117,0.0079,0.007,0.0103,0.0217,0.0221,0.0224,0.0187,0.0187,0.0187,0,0,-0.0777,-0.0816,-0.0766,-0.0814,-0.0801,-0.0729,-0.0716,-0.0672,-0.0599,-0.0564,-0.0452,-0.0325,-0.0218,-0.0137,-0.0042,0.0053,0.0132,0.0097,0.0087,0.0079,0.0105,0.0217,0.022,0.0187,0.0187,0.0187,0,0,-0.0748,-0.0729,-0.0693,-0.0754,-0.0713,-0.0648,-0.066,-0.0611,-0.0533,-0.0518,-0.0367,-0.0328,-0.0242,-0.0139,-0.0157,0.0008,0.0055,0.0062,-0.006,-0.007,-0.008,-0.0075,-0.0031,0,0,0,0,0,-0.0668,-0.0736,-0.0704,-0.0707,-0.0683,-0.0666,-0.0656,-0.0592,-0.0558,-0.0562,-0.0452,-0.0359,-0.0115,-0.0128,-0.0093,-0.0064,0.0188,0.0188,0.0188,0.0051,0.0039,0.0028,0,0,0,0,0,0,-0.0669,-0.0674,-0.0701,-0.0649,-0.0643,-0.0664,-0.0591,-0.0573,-0.0556,-0.0546,-0.0386,-0.0354,-0.0245,-0.0136,-0.0107,-0.0081,-0.0041,0.0188,0.0188,0.0188,0.0047,0.0037,0.0028,0,0,0,0,0,-0.0669,-0.0673,-0.0665,-0.0645,-0.064,-0.0569,-0.0589,-0.0574,-0.0552,-0.0401,-0.037,-0.0508,-0.0249,-0.0215,-0.0118,-0.0098,-0.006,-0.0049,0.0188,0.0188,0.0188,0.0042,0,0,0,0,0,0,-0.0669,-0.0636,-0.066,-0.0654,-0.0634,-0.0565,-0.0557,-0.0575,-0.0403,-0.0379,-0.0514,-0.0507,-0.0252,-0.0224,-0.0199,-0.0111,-0.0076,-0.0065,-0.0058,0.0188,0.0188,0.0188,0,0,0,0,0,0,-0.0634,-0.0632,-0.0657,-0.0646,-0.0637,-0.0561,-0.0555,-0.0452,-0.0397,-0.0521,-0.0514,-0.0512,-0.0256,-0.0232,-0.0211,-0.0056,-0.0088,-0.0078,-0.007,-0.0066,0.0188,0.0188,0,0,0,0,0,0,-0.0631,-0.0629,-0.0646,-0.064,-0.0632,-0.0552,-0.0462,-0.0416,-0.0474,-0.0526,-0.0469,-0.0467,-0.0262,-0.0242,-0.022,-0.0075,-0.0061,-0.0087,-0.008,-0.0076,-0.0072,0,0,0,0,0,0,0,-0.0628,-0.0669,-0.0705,-0.0635,-0.0628,-0.0598,-0.0596,-0.0593,-0.0474,-0.0472,-0.047,-0.0468,-0.0146,-0.0134,-0.0123,-0.009,0,0,-0.0088,-0.0083,0,0,0,0,0,0,0,0,-0.0666,-0.0668,-0.0705,-0.0705,-0.0704,-0.0598,-0.0596,-0.0594,-0.0473,-0.0472,-0.047,-0.0469,-0.0143,-0.0134,-0.0124,0,0,0,0,0,0,0,0,0,0,0,0,0,0,0,-0.0705,-0.0705,0,-0.0598,-0.0596,-0.0594,-0.0473,-0.0472,-0.047,-0.0469,-0.014,-0.0133,-0.0125,0,0,0,0,0,0,0,0,0,0,0,0,0,0,0,0,0,0,0,0,0,0,0,0,0,0,0,0,0,0,0,0,0,0,0,0,0,0,0,0,0,0,0,0,0,0,0,0,0,0,0,0,0,0,0,0,0,0,0,0,0,0,0,0,0,0,0,0,0]}]],[[{"header":{"parameterUnit":"kt","parameterCategory":2,"dx":1,"dy":1,"la1":30.253999710083008,"la2":30.299108505249023,"lo1":-89.0895004272461,"lo2":-89.04439544677734,"nx":28,"ny":28,"refTime":"2022-10-02T21:00:00:Z","depth":"4","parameterNumber":2,"parameterNumberName":"U-component_of_CURRENTS"},"data":[-0.2293,-0.2328,-0.2342,-0.2229,-0.2209,-0.2278,-0.2366,-0.2509,-0.2438,-0.2647,-0.2586,-0.2764,-0.2685,-0.2855,-0.2615,-0.2629,-0.2654,-0.2807,-0.2798,-0.2976,-0.3005,-0.3031,-0.2836,0,0,0,0,0,-0.2417,-0.2397,-0.2443,-0.2494,-0.26,-0.2658,-0.2823,-0.2935,-0.3122,-0.2938,-0.3062,-0.2955,-0.2831,-0.2854,-0.2689,-0.2944,-0.2964,-0.2744,-0.2884,-0.2994,-0.3026,-0.2826,0,0,0,0,0,0,-0.2607,-0.2607,-0.2728,-0.2783,-0.29,-0.2897,-0.3001,-0.3008,-0.3073,-0.3259,-0.3184,-0.3214,-0.3328,-0.3164,-0.3088,-0.3,-0.2942,-0.2851,-0.2889,-0.2921,-0.2736,-0.2607,-0.2445,0,0,0,0,0,-0.2758,-0.288,-0.2935,-0.3046,-0.3139,-0.3202,-0.3309,-0.3318,-0.3473,-0.3676,-0.3543,-0.3474,-0.3405,-0.3317,-0.3272,-0.3173,-0.3396,-0.3283,-0.3299,-0.3193,-0.3131,-0.3191,-0.3206,-0.3148,-0.3152,-0.3155,-0.3156,0,-0.2957,-0.2992,-0.3188,-0.3237,-0.3297,-0.3429,-0.3483,-0.3665,-0.3685,-0.3823,-0.379,-0.3836,-0.3791,-0.3543,-0.3558,-0.3459,-0.3374,-0.3367,-0.3255,-0.3182,-0.3234,-0.3241,-0.3246,-0.3182,-0.318,-0.3178,-0.3176,0,-0.3068,-0.3153,-0.3212,-0.3367,-0.343,-0.35,-0.3643,-0.3694,-0.3847,-0.3874,-0.3912,-0.3948,-0.3879,-0.3857,-0.3838,-0.3663,-0.3563,-0.3465,-0.3708,-0.3775,-0.3296,-0.329,-0.3225,-0.3215,-0.3207,-0.3201,-0.3195,0,-0.3181,-0.3221,-0.3347,-0.3372,-0.3456,-0.3538,-0.3631,-0.3695,-0.3804,-0.3812,-0.3875,-0.384,-0.3861,-0.3835,-0.3753,-0.3565,-0.3752,-0.3378,-0.342,-0.3661,-0.3657,-0.3684,-0.3682,-0.3691,-0.369,-0.3689,-0.3688,0,-0.3257,-0.3294,-0.3317,-0.334,-0.3419,-0.3475,-0.3536,-0.3608,-0.3631,-0.3742,-0.3818,-0.3777,-0.3777,-0.3769,-0.3633,-0.3658,-0.3662,-0.3713,-0.3451,-0.3438,-0.3677,-0.3677,-0.3687,-0.3686,-0.3686,-0.3686,-0.3685,0,-0.3278,-0.3294,-0.3303,-0.3386,-0.3397,-0.344,-0.3537,-0.3548,-0.3608,-0.3654,-0.3655,-0.3675,-0.3561,-0.3514,-0.3472,-0.351,-0.3513,-0.3513,-0.3523,-0.3261,-0.3341,-0.3655,-0.368,-0.3679,-0.3678,-0.3677,-0.3677,0,-0.3332,-0.3321,-0.3316,-0.3355,-0.3357,-0.3396,-0.3408,-0.3438,-0.3476,-0.3563,-0.3462,-0.3515,-0.3381,-0.3436,-0.3371,-0.341,-0.3388,-0.333,-0.3608,-0.3613,-0.3344,-0.3296,-0.352,-0.3665,-0.3666,-0.3667,-0.3668,0,-0.3362,-0.3357,-0.3368,-0.3396,-0.3393,-0.3413,-0.3398,-0.3402,-0.3466,-0.3469,-0.3537,-0.3382,-0.3424,-0.3395,-0.3373,-0.3348,-0.3371,-0.3458,-0.3462,-0.3493,-0.36,-0.3322,-0.3303,-0.3519,-0.3519,-0.3519,-0.366,0,-0.3333,-0.3381,-0.3373,-0.3384,-0.3396,-0.3396,-0.3392,-0.3431,-0.3484,-0.3498,-0.3523,-0.3468,-0.3497,-0.3467,-0.343,-0.3403,-0.3518,-0.3561,-0.3548,-0.3554,-0.3622,-0.3628,-0.3565,-0.3566,-0.3567,-0.3567,0,0,-0.3364,-0.3384,-0.3414,-0.34,-0.3416,-0.3452,-0.3446,-0.3433,-0.3486,-0.3506,-0.3548,-0.3595,-0.3538,-0.3482,-0.3452,-0.3482,-0.36,-0.3493,-0.3561,-0.356,-0.3559,-0.3622,-0.3627,-0.3568,-0.3569,-0.3569,-0.3569,0,-0.3319,-0.3405,-0.3416,-0.3423,-0.344,-0.3436,-0.3458,-0.3479,-0.3487,-0.3527,-0.3552,-0.3544,-0.3608,-0.3531,-0.3511,-0.3506,-0.3585,-0.3582,-0.35,-0.3566,-0.3564,-0.3562,-0.3623,-0.3628,-0.3571,-0.3571,-0.3571,0,-0.3311,-0.3337,-0.3384,-0.3421,-0.3426,-0.3419,-0.3451,-0.3467,-0.3466,-0.3513,-0.3552,-0.3583,-0.3575,-0.3567,-0.3578,-0.3574,-0.358,-0.3563,-0.3562,-0.3506,-0.3572,-0.3571,-0.3569,-0.3581,-0.358,-0.358,0,0,-0.3274,-0.3325,-0.3355,-0.3419,-0.3417,-0.3439,-0.3451,-0.3474,-0.3495,-0.3515,-0.355,-0.3577,-0.3569,-0.3577,-0.358,-0.3572,-0.3596,-0.3561,-0.356,-0.356,-0.3505,-0.3569,-0.3569,-0.3579,-0.3579,-0.3579,0,0,-0.3246,-0.3304,-0.3355,-0.3425,-0.3434,-0.342,-0.343,-0.3468,-0.35,-0.3529,-0.3541,-0.3547,-0.3576,-0.3579,-0.3565,-0.3555,-0.3564,-0.3566,-0.3526,-0.3526,-0.3525,-0.3453,-0.3533,0,0,0,0,0,-0.325,-0.3293,-0.334,-0.336,-0.3423,-0.3405,-0.3405,-0.3439,-0.3491,-0.3493,-0.3539,-0.3527,-0.3571,-0.3558,-0.3556,-0.353,-0.3562,-0.3565,-0.3568,-0.3516,-0.3516,-0.3516,0,0,0,0,0,0,-0.3257,-0.328,-0.3337,-0.3335,-0.335,-0.3404,-0.3434,-0.344,-0.3491,-0.35,-0.3519,-0.3524,-0.3508,-0.3558,-0.3556,-0.3531,-0.3534,-0.3563,-0.3566,-0.3568,-0.3516,-0.3516,-0.3516,0,0,0,0,0,-0.3263,-0.3281,-0.3399,-0.3332,-0.3344,-0.339,-0.3436,-0.3442,-0.3484,-0.3479,-0.3487,-0.3523,-0.3505,-0.3508,-0.3556,-0.3532,-0.3535,-0.3534,-0.3565,-0.3567,-0.3569,-0.3516,0,0,0,0,0,0,-0.3267,-0.3249,-0.34,-0.3402,-0.3361,-0.3387,-0.34,-0.3443,-0.3461,-0.347,-0.3477,-0.3482,-0.3503,-0.3506,-0.3507,-0.3533,-0.3536,-0.3535,-0.3535,-0.3566,-0.3568,-0.3569,0,0,0,0,0,0,-0.324,-0.3251,-0.34,-0.3436,-0.3442,-0.3384,-0.3396,-0.3381,-0.3461,-0.3455,-0.3462,-0.3479,-0.3522,-0.3503,-0.3505,-0.3476,-0.3536,-0.3536,-0.3535,-0.3535,-0.3568,-0.3569,0,0,0,0,0,0,-0.3244,-0.3253,-0.3435,-0.3439,-0.3444,-0.3459,-0.3369,-0.3443,-0.3474,-0.3453,-0.3482,-0.3486,-0.352,-0.3521,-0.3503,-0.3473,-0.3475,-0.3536,-0.3536,-0.3536,-0.3535,0,0,0,0,0,0,0,-0.3247,-0.3199,-0.3403,-0.3442,-0.3446,-0.3422,-0.3421,-0.342,-0.3475,-0.3478,-0.3481,-0.3484,-0.354,-0.3539,-0.3539,-0.347,0,0,-0.3536,-0.3536,0,0,0,0,0,0,0,0,-0.3194,-0.3198,-0.3403,-0.3404,-0.3405,-0.3422,-0.3421,-0.3421,-0.3476,-0.3478,-0.3481,-0.3483,-0.354,-0.3539,-0.3539,0,0,0,0,0,0,0,0,0,0,0,0,0,0,0,-0.3403,-0.3404,0,-0.3422,-0.3421,-0.3421,-0.3476,-0.3478,-0.348,-0.3482,-0.354,-0.3539,-0.3539,0,0,0,0,0,0,0,0,0,0,0,0,0,0,0,0,0,0,0,0,0,0,0,0,0,0,0,0,0,0,0,0,0,0,0,0,0,0,0,0,0,0,0,0,0,0,0,0,0,0,0,0,0,0,0,0,0,0,0,0,0,0,0,0,0,0,0,0,0]}],[{"header":{"parameterUnit":"kt","parameterCategory":2,"dx":1,"dy":1,"la1":30.253999710083008,"la2":30.299108505249023,"lo1":-89.0895004272461,"lo2":-89.04439544677734,"nx":28,"ny":28,"refTime":"2022-10-02T21:00:00:Z","depth":"4","parameterNumber":3,"parameterNumberName":"V-component_of_CURRENTS"},"data":[-0.1224,-0.1319,-0.1369,-0.1485,-0.1559,-0.1639,-0.1636,-0.1567,-0.1445,-0.1309,-0.1079,-0.0912,-0.0507,-0.0671,-0.0098,-0.0021,0.0098,0.0494,0.0499,0.068,0.0679,0.0679,0.0482,0,0,0,0,0,-0.1219,-0.1284,-0.1373,-0.1465,-0.156,-0.1599,-0.1585,-0.1552,-0.1446,-0.1298,-0.1198,-0.0929,-0.0513,-0.0323,-0.0082,-0.0002,0.0344,0.0284,0.0429,0.068,0.0679,0.0488,0,0,0,0,0,0,-0.1214,-0.1267,-0.1342,-0.1421,-0.1508,-0.1545,-0.1542,-0.1458,-0.1402,-0.1192,-0.1127,-0.081,-0.0614,-0.0237,0.0025,0.0272,0.0333,0.0408,0.0422,0.0425,0.0235,0.0081,0.0249,0,0,0,0,0,-0.1181,-0.1232,-0.1268,-0.137,-0.1425,-0.146,-0.1463,-0.1446,-0.1331,-0.1262,-0.1041,-0.0799,-0.0522,-0.0187,0.0092,0.0357,0.0538,0.0619,0.062,0.0548,0.0462,0.0459,0.0434,0.0676,0.0676,0.0676,0.0676,0,-0.1147,-0.118,-0.1241,-0.1285,-0.1297,-0.1332,-0.1349,-0.1276,-0.124,-0.1077,-0.1031,-0.0796,-0.0631,-0.0181,0.0067,0.0455,0.0472,0.0616,0.0537,0.0458,0.0461,0.0434,0.0409,0.0676,0.0676,0.0676,0.0676,0,-0.113,-0.1129,-0.1167,-0.1167,-0.1176,-0.1207,-0.1195,-0.118,-0.1092,-0.1022,-0.0986,-0.0765,-0.0516,-0.0268,0.007,0.0195,0.0439,0.0505,0.0368,0.038,0.0423,0.0397,0.0675,0.0675,0.0675,0.0675,0.0675,0,-0.1068,-0.1092,-0.1091,-0.111,-0.1137,-0.1088,-0.1094,-0.1039,-0.0956,-0.0912,-0.0761,-0.0688,-0.0438,-0.0249,-0.0066,0.0165,0.0234,0.0287,0.0319,0.0204,0.0181,0.026,0.024,0.0407,0.0404,0.0402,0.0401,0,-0.1025,-0.1022,-0.1045,-0.1043,-0.101,-0.1015,-0.0998,-0.0926,-0.0906,-0.0779,-0.0738,-0.0557,-0.0496,-0.0281,-0.0122,-0.0149,0.0171,0.016,0.024,0.0236,0.024,0.0224,0.0398,0.0398,0.0397,0.0397,0.0396,0,-0.0956,-0.0966,-0.099,-0.096,-0.0957,-0.0966,-0.0925,-0.0907,-0.0807,-0.0771,-0.0677,-0.0617,-0.0489,-0.0495,-0.0232,-0.0327,-0.0195,-0.0108,-0.0095,-0.0109,-0.0144,-0.0026,0.0025,0.0021,0.0017,0.0013,0.001,0,-0.0901,-0.093,-0.0907,-0.0923,-0.0926,-0.0886,-0.0876,-0.0842,-0.0803,-0.0746,-0.0681,-0.0645,-0.0639,-0.0624,-0.0516,-0.0417,-0.0294,-0.0443,-0.0138,-0.0129,-0.0153,-0.0108,-0.0321,-0.0043,-0.0036,-0.0031,-0.0028,0,-0.0865,-0.085,-0.0863,-0.0853,-0.0838,-0.0847,-0.0836,-0.0802,-0.0776,-0.0757,-0.0701,-0.0691,-0.0646,-0.0624,-0.0606,-0.051,-0.037,-0.0485,-0.0477,-0.0337,-0.0094,-0.0164,-0.0139,-0.0346,-0.0341,-0.0337,-0.0064,0,-0.0774,-0.0795,-0.0816,-0.0811,-0.0812,-0.0826,-0.0798,-0.0796,-0.0784,-0.0749,-0.0723,-0.0695,-0.0644,-0.0667,-0.0654,-0.057,-0.0544,-0.0542,-0.046,-0.0472,-0.0362,-0.0333,-0.0654,-0.0653,-0.0652,-0.0652,0,0,-0.072,-0.075,-0.075,-0.0761,-0.0759,-0.0732,-0.0739,-0.0731,-0.0716,-0.0695,-0.0701,-0.0659,-0.064,-0.0592,-0.0617,-0.0636,-0.0555,-0.0583,-0.0512,-0.0497,-0.0483,-0.0376,-0.0349,-0.065,-0.065,-0.065,-0.0649,0,-0.0685,-0.0711,-0.0739,-0.0735,-0.073,-0.071,-0.0719,-0.0702,-0.0689,-0.0695,-0.0657,-0.0638,-0.0635,-0.0586,-0.0568,-0.0628,-0.0514,-0.0658,-0.0632,-0.0511,-0.0497,-0.0484,-0.0377,-0.0354,-0.0647,-0.0648,-0.0648,0,-0.0625,-0.0634,-0.0655,-0.0672,-0.0663,-0.0662,-0.0631,-0.0646,-0.0641,-0.0587,-0.0582,-0.057,-0.0538,-0.0539,-0.0539,-0.051,-0.045,-0.0527,-0.0533,-0.0483,-0.0351,-0.0339,-0.0328,-0.0451,-0.045,-0.045,0,0,-0.0593,-0.063,-0.0616,-0.0662,-0.0659,-0.0635,-0.0638,-0.0618,-0.0603,-0.0595,-0.0559,-0.0535,-0.0522,-0.0502,-0.0493,-0.0496,-0.0401,-0.0502,-0.0512,-0.0519,-0.0474,-0.0346,-0.0336,-0.0447,-0.0447,-0.0447,0,0,-0.0571,-0.0577,-0.0563,-0.0617,-0.0608,-0.0587,-0.0603,-0.0584,-0.0572,-0.0566,-0.0505,-0.0492,-0.0497,-0.0472,-0.0441,-0.0457,-0.0422,-0.0428,-0.045,-0.0461,-0.047,-0.0413,-0.0358,0,0,0,0,0,-0.0527,-0.0579,-0.0567,-0.0574,-0.0591,-0.0598,-0.0597,-0.0566,-0.0548,-0.0558,-0.0529,-0.0473,-0.0448,-0.0418,-0.041,-0.0414,-0.0409,-0.0416,-0.0422,-0.0454,-0.0466,-0.0476,0,0,0,0,0,0,-0.053,-0.0539,-0.0565,-0.0552,-0.0555,-0.0597,-0.0548,-0.054,-0.0545,-0.0538,-0.0484,-0.0472,-0.0422,-0.0418,-0.0411,-0.0416,-0.036,-0.0412,-0.0417,-0.0423,-0.0458,-0.0468,-0.0477,0,0,0,0,0,-0.0532,-0.0539,-0.0579,-0.055,-0.0552,-0.0524,-0.0546,-0.0539,-0.054,-0.048,-0.0468,-0.0518,-0.0424,-0.0415,-0.0414,-0.0421,-0.0364,-0.0362,-0.0415,-0.042,-0.0424,-0.0463,0,0,0,0,0,0,-0.0533,-0.0524,-0.0578,-0.0577,-0.0532,-0.052,-0.0519,-0.0538,-0.048,-0.047,-0.0509,-0.0504,-0.0426,-0.0418,-0.0411,-0.0425,-0.0368,-0.0365,-0.0364,-0.0419,-0.0422,-0.0425,0,0,0,0,0,0,-0.052,-0.0523,-0.0577,-0.0557,-0.0553,-0.0516,-0.0515,-0.05,-0.0478,-0.051,-0.0505,-0.0507,-0.0423,-0.0421,-0.0416,-0.0394,-0.037,-0.0368,-0.0366,-0.0366,-0.0422,-0.0424,0,0,0,0,0,0,-0.052,-0.0523,-0.0557,-0.0554,-0.055,-0.0532,-0.0499,-0.0508,-0.0494,-0.0512,-0.0489,-0.0486,-0.0426,-0.042,-0.0419,-0.04,-0.0395,-0.037,-0.0369,-0.0368,-0.0367,0,0,0,0,0,0,0,-0.0521,-0.0514,-0.0588,-0.0551,-0.0548,-0.0566,-0.0565,-0.0565,-0.0494,-0.0491,-0.0489,-0.0487,-0.0382,-0.038,-0.0377,-0.0405,0,0,-0.037,-0.0369,0,0,0,0,0,0,0,0,-0.0511,-0.0513,-0.0588,-0.0588,-0.0588,-0.0566,-0.0565,-0.0565,-0.0493,-0.0491,-0.049,-0.0488,-0.0381,-0.0379,-0.0378,0,0,0,0,0,0,0,0,0,0,0,0,0,0,0,-0.0588,-0.0588,0,-0.0566,-0.0565,-0.0565,-0.0493,-0.0491,-0.049,-0.0489,-0.0381,-0.0379,-0.0378,0,0,0,0,0,0,0,0,0,0,0,0,0,0,0,0,0,0,0,0,0,0,0,0,0,0,0,0,0,0,0,0,0,0,0,0,0,0,0,0,0,0,0,0,0,0,0,0,0,0,0,0,0,0,0,0,0,0,0,0,0,0,0,0,0,0,0,0,0]}]]]